Location: Aufkirchen
(47.9603°N, 11.3653°E)
Time: 16:16:22
(UTC+01:00)

Transit 4A - Pass Details

Date: 05 December 2020
Orbit: 864 x 980 km, 66.8° (Epoch: 26 January)

Event Time Altitude Azimuth Distance (km) Brightness Sun altitude
Rises 17:00:20 0° 314° (NW) 3,670 11.3 -6.3°
Reaches altitude 10° 17:03:44 10° 297° (WNW) 2,702 10.9 -6.9°
Maximum altitude 17:07:48 18° 257° (WSW) 2,141 11.1 -7.5°
Drops below altitude 10° 17:11:48 10° 216° (SW) 2,643 11.4 -8.1°
Sets 17:15:05 0° 198° (SSW) 3,559 11.6 -8.6°
